KF4PPJ Weather Reports


time (UTC)temp
F
wind
direction
speed
knots
gust
knots
rain 1hr
in
rain 24hr
in
rain mn
in
humidity
%
barometer
mb
20260507164251 55 178 2.6 5.2 0.00 0.00 0.00 73 1023.6
20260507163748 55 189 2.6 5.2 0.00 0.00 0.00 73 1023.6
20260507163246 55 220 4.3 8.7 0.00 0.00 0.00 72 1023.6
20260507162741 54 172 4.3 6.1 0.00 0.00 0.00 74 1023.5
20260507162237 54 246 6.1 9.6 0.00 0.00 0.00 74 1023.4
20260507161734 54 241 2.6 4.3 0.00 0.00 0.00 74 1023.6
20260507161231 55 223 2.6 5.2 0.00 0.00 0.00 73 1023.7
20260507160726 54 210 3.5 5.2 0.00 0.00 0.00 75 1023.8
20260507160223 54 139 5.2 6.1 0.00 0.00 0.00 74 1023.6
20260507155719 54 232 2.6 7.8 0.00 0.00 0.00 75 1023.8
20260507155215 53 205 5.2 7.8 0.00 0.00 0.00 75 1023.7
20260507154712 53 214 3.5 5.2 0.00 0.00 0.00 77 1023.8
20260507154210 53 131 4.3 6.1 0.00 0.00 0.00 77 1023.6
20260507153707 52 174 3.5 5.2 0.00 0.00 0.00 79 1023.7
20260507153203 52 201 2.6 6.1 0.00 0.00 0.00 78 1024.0
20260507152659 52 212 3.5 5.2 0.00 0.00 0.00 78 1023.8
20260507152155 52 133 1.7 5.2 0.00 0.00 0.00 78 1023.7
20260507151651 52 134 4.3 5.2 0.00 0.00 0.00 78 1023.8
20260507151148 52 220 4.3 7.0 0.00 0.00 0.00 78 1023.8
20260507150645 53 212 3.5 5.2 0.00 0.00 0.00 77 1023.7
20260507150142 53 184 1.7 5.2 0.00 0.00 0.00 77 1023.6
20260507145637 53 229 2.6 4.3 0.00 0.00 0.00 78 1023.7
20260507145135 53 192 2.6 6.1 0.00 0.00 0.00 78 1023.9
20260507144631 52 195 2.6 6.1 0.00 0.00 0.00 78 1023.8
20260507144130 52 184 2.6 5.2 0.00 0.00 0.00 79 1023.7
20260507143626 52 206 2.6 5.2 0.00 0.00 0.00 79 1023.7
20260507143123 52 228 4.3 5.2 0.00 0.00 0.00 79 1023.6
20260507142618 52 217 3.5 5.2 0.00 0.00 0.00 80 1023.9
20260507142116 52 160 2.6 2.6 0.00 0.00 0.00 80 1023.7
20260507141612 52 230 1.7 2.6 0.00 0.00 0.00 79 1023.8
20260507141109 52 156 0.9 0.9 0.00 0.00 0.00 80 1023.7
20260507140605 52 175 0.9 1.7 0.00 0.00 0.00 80 1023.7
20260507135600 52 232 2.6 2.6 0.00 0.00 0.00 80 1023.6
20260507135057 52 162 1.7 4.3 0.00 0.00 0.00 80 1023.6
20260507134553 52 164 0.0 0.9 0.00 0.00 0.00 81 1023.6
20260507134050 52 178 3.5 4.3 0.00 0.00 0.00 81 1023.7
20260507133545 52 175 0.9 2.6 0.00 0.00 0.00 82 1023.3
20260507133044 52 179 0.9 1.7 0.00 0.00 0.00 82 1023.4
20260507132540 52 184 0.9 1.7 0.00 0.00 0.00 83 1023.4
20260507132036 51 171 0.9 1.7 0.00 0.00 0.00 82 1023.3
20260507131533 51 162 1.7 1.7 0.00 0.00 0.00 82 1023.4
20260507131031 51 188 1.7 4.3 0.00 0.00 0.00 82 1023.5
20260507130527 51 160 0.0 0.0 0.00 0.00 0.00 82 1023.4
20260507130026 51 167 0.9 1.7 0.00 0.00 0.00 82 1023.5
20260507125524 51 160 0.0 0.9 0.00 0.00 0.00 83 1023.4
20260507125021 51 161 0.0 1.7 0.00 0.00 0.00 83 1023.3
20260507124517 51 162 0.0 0.0 0.00 0.00 0.00 83 1023.6
20260507124015 51 146 0.0 0.9 0.00 0.00 0.00 84 1023.5
20260507123513 51 146 0.0 0.0 0.00 0.00 0.00 83 1023.5
20260507123010 51 167 0.0 0.9 0.00 0.00 0.00 82 1023.6
20260507122504 51 191 0.9 1.7 0.00 0.00 0.00 83 1023.8
20260507122001 51 163 0.0 0.9 0.00 0.00 0.00 83 1023.4
20260507121456 51 155 0.0 0.9 0.00 0.00 0.00 83 1023.5
20260507120953 51 97 0.9 0.9 0.00 0.00 0.00 83 1023.6
20260507120449 51 151 0.0 0.0 0.00 0.00 0.00 84 1023.5
20260507115946 51 151 0.0 0.9 0.00 0.00 0.00 84 1023.8
20260507115442 51 163 0.0 0.9 0.00 0.00 0.00 84 1023.6
20260507114938 51 193 0.9 2.6 0.00 0.00 0.00 86 1023.7
20260507114434 51 175 0.0 0.0 0.00 0.00 0.00 87 1023.9
20260507113932 51 152 0.0 0.0 0.00 0.00 0.00 88 1023.8
20260507113429 51 151 0.0 0.0 0.00 0.00 0.00 88 1023.8
20260507112926 51 151 0.0 0.0 0.00 0.00 0.00 88 1023.9
20260507112424 51 155 0.0 0.0 0.00 0.00 0.00 88 1024.0
20260507111921 51 156 0.0 0.0 0.00 0.00 0.00 89 1024.1
20260507111418 51 155 0.0 0.0 0.00 0.00 0.00 89 1024.0
20260507110914 51 155 0.0 0.0 0.00 0.00 0.00 89 1023.9
20260507110410 51 155 0.0 0.0 0.00 0.00 0.00 89 1024.0
20260507105907 51 155 0.0 0.0 0.00 0.00 0.00 89 1024.0
20260507105404 51 155 0.0 0.0 0.00 0.00 0.00 89 1024.1
20260507104901 51 155 0.0 0.0 0.00 0.00 0.00 89 1023.9
20260507104357 51 155 0.0 0.0 0.00 0.00 0.00 89 1023.9
20260507103853 51 155 0.0 0.0 0.00 0.00 0.00 90 1024.1
20260507103350 51 152 0.0 0.0 0.00 0.00 0.00 90 1024.1
20260507102846 51 153 0.0 0.0 0.00 0.00 0.00 90 1024.2
20260507102343 51 155 0.0 0.0 0.00 0.00 0.00 90 1024.0
20260507101839 51 155 0.0 0.0 0.00 0.00 0.00 90 1024.0
20260507101339 51 155 0.0 0.0 0.00 0.00 0.00 90 1024.3
20260507100837 51 155 0.0 0.9 0.00 0.00 0.00 90 1024.2
20260507100334 51 155 0.0 0.0 0.00 0.00 0.00 90 1024.2
20260507095832 51 156 0.0 0.0 0.00 0.00 0.00 90 1024.0
20260507095328 51 155 0.0 0.9 0.00 0.00 0.00 90 1024.1
20260507094826 51 155 0.9 0.9 0.00 0.00 0.00 90 1023.9
20260507094322 51 144 0.0 0.9 0.00 0.00 0.00 90 1024.0
20260507093819 51 155 0.0 0.0 0.00 0.00 0.00 90 1024.0
20260507093318 51 155 0.0 0.9 0.00 0.00 0.00 90 1024.0
20260507092815 51 156 0.0 0.9 0.00 0.00 0.00 90 1024.0
20260507092312 51 148 0.9 0.9 0.00 0.00 0.00 90 1024.0
20260507091808 51 150 0.0 0.9 0.00 0.00 0.00 89 1023.9
20260507091305 51 145 0.0 0.0 0.00 0.00 0.00 89 1024.1
20260507090805 51 146 0.0 0.9 0.00 0.00 0.00 89 1023.9
20260507090302 51 155 0.0 0.0 0.00 0.00 0.00 88 1024.0
20260507085759 51 150 0.0 0.0 0.00 0.00 0.00 87 1023.9
20260507085255 52 157 0.0 0.0 0.00 0.00 0.00 86 1023.9
20260507084753 52 240 1.7 1.7 0.00 0.00 0.00 86 1023.9
20260507084249 52 163 0.0 0.9 0.00 0.00 0.00 86 1023.9
20260507083747 52 156 0.9 2.6 0.00 0.00 0.00 85 1023.6
20260507083243 52 167 0.0 0.9 0.00 0.00 0.00 85 1023.9
20260507082739 52 204 1.7 1.7 0.00 0.00 0.00 85 1024.0
20260507082235 52 165 0.0 0.9 0.00 0.00 0.00 85 1024.1
20260507081732 52 152 0.9 0.9 0.00 0.00 0.00 85 1024.0
20260507081228 52 156 0.0 1.7 0.00 0.00 0.00 85 1023.9
20260507080725 52 189 0.9 1.7 0.00 0.00 0.00 85 1024.0
20260507080222 52 208 2.6 4.3 0.00 0.00 0.00 85 1023.9
20260507075717 52 159 0.0 1.7 0.00 0.00 0.00 85 1023.9
20260507075213 52 205 0.9 2.6 0.00 0.00 0.00 85 1024.0
20260507074709 52 176 0.9 0.9 0.00 0.00 0.00 86 1024.1
20260507074208 52 173 0.9 1.7 0.00 0.00 0.00 86 1023.8
20260507073704 52 179 0.9 1.7 0.00 0.00 0.00 86 1023.9
20260507073200 53 202 3.5 7.0 0.00 0.00 0.00 86 1023.9
20260507072658 53 164 2.6 4.3 0.00 0.00 0.00 86 1023.9
20260507072155 53 210 2.6 4.3 0.00 0.00 0.00 86 1024.0
20260507071653 53 181 0.9 2.6 0.00 0.00 0.00 87 1024.0
20260507071149 53 166 1.7 1.7 0.00 0.00 0.00 87 1023.9
20260507070646 52 151 1.7 2.6 0.00 0.00 0.00 87 1024.0
20260507070143 52 214 1.7 4.3 0.00 0.00 0.00 87 1023.8
20260507065639 52 199 2.6 5.2 0.00 0.00 0.00 87 1023.9
20260507065136 52 175 2.6 6.1 0.00 0.00 0.00 88 1024.2
20260507064634 52 226 5.2 7.0 0.00 0.00 0.00 89 1024.1
20260507064133 52 163 0.9 1.7 0.00 0.00 0.00 89 1023.9
20260507063630 52 180 0.9 1.7 0.00 0.00 0.00 90 1023.9
20260507063127 52 177 0.0 0.9 0.00 0.00 0.00 90 1024.0
20260507062623 52 180 0.9 1.7 0.00 0.00 0.00 90 1023.9
20260507062121 52 184 0.9 1.7 0.00 0.00 0.00 90 1024.1
20260507061619 52 197 0.9 2.6 0.00 0.00 0.00 90 1024.0
20260507061117 52 151 1.7 2.6 0.00 0.00 0.00 89 1024.1
20260507060614 53 191 0.9 4.3 0.00 0.00 0.00 89 1024.4
20260507060111 53 216 2.6 5.2 0.00 0.00 0.00 89 1024.1
20260507055606 53 202 2.6 5.2 0.00 0.00 0.00 89 1024.0
20260507055102 53 185 0.9 6.1 0.00 0.00 0.00 90 1024.1
20260507054558 53 159 0.9 1.7 0.00 0.00 0.00 89 1024.1
20260507054055 53 186 0.9 2.6 0.00 0.00 0.00 89 1024.0
20260507053553 53 160 0.0 4.3 0.00 0.00 0.00 89 1024.1
20260507053052 53 164 4.3 5.2 0.00 0.00 0.00 89 1024.1
20260507052549 53 228 2.6 4.3 0.00 0.00 0.00 89 1024.2
20260507052046 53 207 0.9 2.6 0.00 0.00 0.00 88 1024.1
20260507051543 53 177 7.8 8.7 0.00 0.00 0.00 88 1024.0
20260507051040 53 224 3.5 5.2 0.00 0.00 0.00 88 1023.9
20260507050536 53 166 1.7 6.1 0.00 0.00 0.00 87 1024.1
20260507050033 53 179 1.7 1.7 0.00 0.00 0.00 87 1024.2
20260507045530 53 163 1.7 5.2 0.00 0.00 0.00 86 1024.3
20260507045027 54 235 3.5 5.2 0.00 0.00 0.00 85 1024.2
20260507044524 54 166 0.0 1.7 0.00 0.00 0.00 85 1024.0
20260507044020 54 218 3.5 4.3 0.00 0.00 0.00 84 1024.0
20260507043516 54 184 3.5 6.1 0.00 0.00 0.00 84 1024.1
20260507043014 54 196 1.7 1.7 0.00 0.00 0.00 83 1024.1
20260507042509 55 215 2.6 2.6 0.00 0.00 0.00 82 1023.8
20260507042005 55 187 0.9 6.1 0.00 0.00 0.00 82 1023.8
20260507041502 55 190 1.7 7.0 0.00 0.00 0.00 82 1023.8
20260507040959 55 172 1.7 2.6 0.00 0.00 0.00 81 1023.8
20260507040455 55 167 0.0 0.9 0.00 0.00 0.00 82 1023.9
20260507035951 55 161 0.0 1.7 0.00 0.00 0.00 82 1023.7
20260507035448 55 193 1.7 2.6 0.00 0.00 0.00 82 1023.7
20260507034945 55 190 2.6 2.6 0.00 0.00 0.00 82 1023.4
20260507034441 55 171 2.6 2.6 0.00 0.00 0.00 82 1023.6
20260507033940 55 183 1.7 1.7 0.00 0.00 0.00 82 1023.6
20260507033437 55 228 1.7 2.6 0.00 0.00 0.00 82 1023.6
20260507032934 55 201 2.6 2.6 0.00 0.00 0.00 81 1023.6
20260507032431 55 168 1.7 1.7 0.00 0.00 0.00 82 1023.4
20260507031927 55 159 1.7 5.2 0.00 0.00 0.00 81 1023.7
20260507031426 55 148 2.6 2.6 0.00 0.00 0.00 81 1023.4
20260507030920 55 182 1.7 4.3 0.00 0.00 0.00 81 1023.5
20260507030418 55 181 1.7 2.6 0.00 0.00 0.00 81 1023.5
20260507025914 55 157 2.6 2.6 0.00 0.00 0.00 80 1023.3
20260507025412 55 148 1.7 4.3 0.00 0.00 0.00 81 1023.3
20260507024910 55 175 4.3 5.2 0.00 0.00 0.00 81 1023.3
20260507024407 56 163 1.7 4.3 0.00 0.00 0.00 80 1023.5
20260507023902 56 201 2.6 2.6 0.00 0.00 0.00 80 1023.3
20260507023359 56 161 2.6 2.6 0.00 0.00 0.00 80 1023.0
20260507022857 56 136 1.7 2.6 0.00 0.00 0.00 80 1023.1
20260507022353 56 173 1.7 6.1 0.00 0.00 0.00 79 1023.0
20260507021849 56 153 0.9 4.3 0.00 0.00 0.00 79 1023.2
20260507021345 56 201 2.6 5.2 0.00 0.00 0.00 78 1023.1
20260507020843 56 160 3.5 5.2 0.00 0.00 0.00 78 1023.0
20260507020339 57 196 2.6 2.6 0.00 0.00 0.00 77 1023.1
20260507015836 57 165 0.9 2.6 0.00 0.00 0.00 78 1023.4
20260507015334 57 191 2.6 4.3 0.00 0.00 0.00 77 1023.1
20260507014831 57 168 2.6 4.3 0.00 0.00 0.00 77 1023.1
20260507014327 57 189 2.6 5.2 0.00 0.00 0.00 77 1023.1
20260507013824 57 264 2.6 6.1 0.00 0.00 0.00 77 1023.1
20260507013321 56 201 2.6 6.1 0.00 0.00 0.00 79 1023.1
20260507012819 56 136 1.7 1.7 0.00 0.00 0.00 79 1023.2
20260507012314 56 158 3.5 4.3 0.00 0.00 0.00 79 1023.2
20260507011811 56 192 3.5 5.2 0.00 0.00 0.00 78 1023.2
20260507011308 57 148 2.6 6.1 0.00 0.00 0.00 78 1023.5
20260507010808 57 216 1.7 6.1 0.00 0.00 0.00 77 1023.1
20260507010304 57 222 2.6 4.3 0.00 0.00 0.00 77 1023.3
20260507005801 57 238 3.5 6.1 0.00 0.00 0.00 76 1023.2
20260507005258 57 216 2.6 2.6 0.00 0.00 0.00 76 1023.6
20260507004754 57 170 2.6 7.0 0.00 0.00 0.00 75 1023.5
20260507004252 57 213 2.6 6.1 0.00 0.00 0.00 75 1023.4
20260507003748 57 162 4.3 5.2 0.00 0.00 0.00 75 1023.4
20260507003243 57 190 4.3 6.1 0.00 0.00 0.00 75 1023.4
20260507002740 57 175 3.5 5.2 0.00 0.00 0.00 75 1023.4
20260507002236 57 195 4.3 7.8 0.00 0.00 0.00 76 1023.6
20260507001733 57 178 0.9 1.7 0.00 0.00 0.00 76 1023.3
20260507001230 57 189 2.6 7.8 0.00 0.00 0.00 76 1023.3
20260507000727 57 188 2.6 4.3 0.00 0.00 0.00 76 1023.5
20260507000222 57 203 5.2 9.6 0.00 0.00 0.00 76 1023.4
20260506235719 57 235 5.2 5.2 0.00 0.00 0.00 75 1023.3
20260506235214 57 189 1.7 4.3 0.00 0.00 0.00 76 1023.3
20260506234712 57 193 3.5 6.1 0.00 0.00 0.00 75 1023.4
20260506234209 57 222 2.6 4.3 0.00 0.00 0.00 74 1023.5
20260506233707 57 175 5.2 6.1 0.00 0.00 0.00 75 1023.3
20260506233203 57 190 3.5 7.0 0.00 0.00 0.00 75 1023.3
20260506232659 57 165 2.6 7.0 0.00 0.00 0.00 75 1023.2
20260506232154 58 172 2.6 4.3 0.00 0.00 0.00 75 1023.5
20260506231652 57 164 0.0 2.6 0.00 0.00 0.00 76 1023.3
20260506231150 57 158 1.7 5.2 0.00 0.00 0.00 75 1023.4
20260506230647 57 150 3.5 5.2 0.00 0.00 0.00 75 1023.5
20260506230144 57 196 4.3 6.1 0.00 0.00 0.00 75 1023.6
20260506225640 57 214 4.3 5.2 0.00 0.00 0.00 75 1023.6
20260506225137 58 150 2.6 7.8 0.00 0.00 0.00 74 1023.4
20260506224633 58 209 7.8 9.6 0.00 0.00 0.00 72 1023.4
20260506224130 57 198 1.7 4.3 0.00 0.00 0.00 74 1023.7
20260506223626 57 166 5.2 7.0 0.00 0.00 0.00 74 1023.4
20260506223122 57 227 3.5 7.0 0.00 0.00 0.00 75 1023.7
20260506222620 57 162 1.7 7.8 0.00 0.00 0.00 75 1023.6
20260506222116 57 207 6.1 9.6 0.00 0.00 0.00 76 1023.6
20260506221614 57 144 3.5 5.2 0.00 0.00 0.00 76 1023.7
20260506221112 57 223 3.5 6.1 0.00 0.00 0.00 75 1023.6
20260506220608 57 181 0.9 5.2 0.00 0.00 0.00 75 1023.7
20260506215600 57 180 6.1 7.8 0.00 0.00 0.00 75 1023.7
20260506215055 56 171 7.8 8.7 0.00 0.00 0.00 77 1023.9
20260506214553 56 154 3.5 7.8 0.00 0.00 0.00 76 1023.9
20260506214050 57 210 3.5 8.7 0.00 0.00 0.00 75 1023.7
20260506213548 57 181 4.3 6.1 0.00 0.00 0.00 75 1023.7
20260506213045 57 187 4.3 6.1 0.00 0.00 0.00 75 1023.7
20260506212541 57 160 0.9 5.2 0.00 0.00 0.00 76 1023.8
20260506212036 57 177 0.9 4.3 0.00 0.00 0.00 77 1023.9
20260506211532 57 187 2.6 5.2 0.00 0.00 0.00 75 1024.0
20260506211030 56 208 2.6 2.6 0.00 0.00 0.00 76 1023.8
20260506210526 57 149 2.6 6.1 0.00 0.00 0.00 75 1023.7
20260506210023 57 235 3.5 5.2 0.00 0.00 0.00 75 1023.7
20260506205520 57 201 4.3 6.1 0.00 0.00 0.00 75 1023.6
20260506205015 56 157 1.7 6.1 0.00 0.00 0.00 76 1023.6
20260506204514 56 202 3.5 7.0 0.00 0.00 0.00 75 1023.8
20260506204010 56 184 3.5 6.1 0.00 0.00 0.00 76 1023.7
20260506203508 56 192 3.5 5.2 0.00 0.00 0.00 76 1023.6
20260506202959 56 129 4.3 7.8 0.00 0.00 0.00 76 1024.0
20260506202456 56 262 3.5 6.1 0.00 0.00 0.00 76 1023.7
20260506201952 56 183 6.1 7.0 0.00 0.00 0.00 77 1023.7
20260506201450 56 193 2.6 6.1 0.00 0.00 0.00 77 1023.6
20260506200946 56 208 4.3 5.2 0.00 0.00 0.00 77 1023.5
20260506200442 56 193 2.6 5.2 0.00 0.00 0.00 77 1023.4
20260506195939 56 170 2.6 5.2 0.00 0.00 0.00 77 1023.4
20260506195436 55 178 0.9 5.2 0.00 0.00 0.00 77 1023.5
20260506194932 56 160 1.7 5.2 0.00 0.00 0.00 77 1023.5
20260506194430 56 165 4.3 6.1 0.00 0.00 0.00 77 1023.4
20260506193927 55 180 0.9 1.7 0.00 0.00 0.00 79 1023.4
20260506193424 55 208 3.5 4.3 0.00 0.00 0.00 78 1023.6
20260506192920 55 149 3.5 4.3 0.00 0.00 0.00 78 1023.3
20260506192417 55 193 1.7 1.7 0.00 0.00 0.00 78 1023.4
20260506191914 55 231 4.3 5.2 0.00 0.00 0.00 78 1023.2
20260506191410 55 222 2.6 4.3 0.00 0.00 0.00 78 1023.3
20260506190908 55 199 3.5 5.2 0.00 0.00 0.00 79 1023.5
20260506190404 55 224 1.7 2.6 0.00 0.00 0.00 80 1023.2
20260506185901 55 179 0.9 2.6 0.00 0.00 0.00 81 1023.3
20260506185358 55 142 2.6 5.2 0.00 0.00 0.00 81 1023.4
20260506184855 54 203 3.5 4.3 0.00 0.00 0.00 82 1023.5
20260506184352 54 223 4.3 5.2 0.00 0.00 0.00 83 1023.5
20260506183849 54 196 3.5 4.3 0.00 0.00 0.00 84 1023.3
20260506183344 54 187 1.7 4.3 0.00 0.00 0.00 84 1023.3
20260506182842 54 174 1.7 2.6 0.00 0.00 0.00 85 1023.4
20260506182339 54 212 0.0 4.3 0.00 0.00 0.00 85 1023.4
20260506181836 54 188 3.5 5.2 0.00 0.00 0.00 85 1023.4
20260506181334 53 153 3.5 5.2 0.00 0.00 0.00 86 1023.1
20260506180831 53 223 2.6 6.1 0.00 0.00 0.00 86 1023.1
20260506180327 53 239 3.5 4.3 0.00 0.00 0.00 87 1023.1
20260506175823 53 187 4.3 5.2 0.00 0.00 0.00 87 1023.1
20260506175320 53 171 2.6 5.2 0.00 0.00 0.00 87 1023.2
20260506174818 53 196 2.6 6.1 0.00 0.00 0.00 87 1023.2
20260506174315 54 215 1.7 2.6 0.00 0.00 0.00 88 1023.0
20260506173812 54 186 1.7 4.3 0.00 0.00 0.00 88 1023.2
20260506173309 54 135 1.7 4.3 0.00 0.00 0.00 88 1023.3
20260506172806 54 198 2.6 5.2 0.00 0.00 0.00 88 1023.3
20260506172306 54 193 1.7 1.7 0.00 0.00 0.00 89 1023.1
20260506171800 53 182 0.9 2.6 0.00 0.00 0.00 89 1023.2
20260506171257 53 222 2.6 4.3 0.00 0.00 0.00 90 1023.3
20260506170755 53 162 1.7 2.6 0.00 0.00 0.00 91 1023.1
20260506170251 53 192 1.7 2.6 0.00 0.00 0.00 91 1023.1
20260506165749 53 182 1.7 1.7 0.00 0.00 0.00 92 1023.2
20260506165247 53 176 2.6 2.6 0.00 0.00 0.00 92 1023.3
20260506164743 53 213 2.6 4.3 0.00 0.00 0.00 93 1023.3